Weather in Nizhneolkhovatoye

Russia / Kursk Oblast     51°59′34″N   37°01′00″E
temp.,
°C
wind,
m/s
gust,
m/s
humid.,
%
clouds,
%
prec.,
mm/h
press.,
hPa
HPBL,
m
28 june, tue
tue2800:00+20nnw33875 0.0 101937
03:00+20nw35923 0.0 101874
06:00+20nnw37910 0.0 1018214
09:00+25ne46723 0.0 1018473
12:00+28nne46554 0.0 10181279
15:00+28nne555346 0.0 10171913
18:00+24ne587483 0.7 1018318
21:00+20ne31092100 1.3 1019264
29 june, wed
wed2900:00+17ene379460 0.0 1020159
03:00+15ene349030 0.0 102168
06:00+15e369241 0.0 1021165
09:00+19ese45665 0.0 1021608
12:00+21ese435458 0.0 10211144
15:00+22ese3352100 0.0 10201460
18:00+21ese2262100 0.0 10201397
21:00+17ese3473100 0.0 102053
30 june, thu
thu3000:00+15se2376100 0.0 102040
03:00+13ene11825 0.0 102010
06:00+14e23820 0.0 102077
09:00+19e22630 0.0 1020496
12:00+22nne33520 0.0 10201846
15:00+23nne44481 0.0 10192082
18:00+22ne3561100 0.0 1019564
21:00+16nne33755 0.0 101927
1 july, fri
fri100:00+14n228015 0.0 102015
03:00+13nnw34801 0.0 102044
06:00+14n36850 0.0 1020139
09:00+20nne45630 0.0 1020507
12:00+23nne46510 0.0 10201795
15:00+23nne56470 0.0 10201958
18:00+23ne36580 0.0 10201712
21:00+19se116720 0.0 102111
2 july, sat
sat200:00+15s12780 0.0 102211
03:00+14wsw22820 0.0 102212
06:00+15wnw348612 0.0 1022103
09:00+21nnw346567 0.0 1022473
12:00+25nw33553 0.0 10211278
15:00+26nw4451100 0.0 10202243
18:00+22wnw3572100 0.0 102095
21:00+20wnw3479100 0.0 102044